User: anonymous   Login
Location: Unspecified
(0.0000°N, 0.0000°E)
Time: 06:53:47
(UTC+00:00)
Language:

IBEX - Orbit

View from above orbital plane
View from above orbital plane
View from above satellite
View from above satellite

Ground track
Ground track

The orbit data is extracted from the following two-line orbital elements,

1 33401U 08051A   16044.42120055 -.00002422  00000-0  00000+0 0  9999
2 33401  26.4293  43.7859 5065143 135.4623   4.7176  0.09890333  3107
Epoch (UTC): 13 February 2016 10:06:31
Eccentricity: 0.5065143
inclination: 26.4293°
perigee height: 91090 km
apogee height: 291174 km
right ascension of ascending node: 43.7859°
argument of perigee: 135.4623°
revolutions per day: 0.09890333
mean anomaly at epoch: 4.7176°
orbit number at epoch: 310

The dashed part of the orbit path shows where the satellite is in the earth's shadow,  

DLR